TIANMU-1 18 (58703 NORAD) Tracking and Keplerian Element Data

This shows tracking and keplerian element data for the satellite.

Feedback or suggestion? Click here.




ElementValue
Catalog58703
NameTIANMU-1 18
Epoch Orbit115
Epoch Day13.17900481
Epoch Year2024
RAAN197.4087
Inclination97.4545
Eccentricity0.0010561
Argument of Perigee246.7992
Mean Anonmoly113.2128
Mean Motion15.14701141
Decay Rate7.427E-05
L11 58703U 24004D 24013.17900481 .00007427 00000+0 40405-3 0 9998
L22 58703 97.4545 197.4087 0010561 246.7992 113.2128 15.14701141 1157



Live tracking and technical data element details for TIANMU-1 18 (NORAD 58703). TIANMU-1 18 can be tracked NOW for your location showing map with azimuth and elevation plus other details from your city location.







IsCatalogInMostPopularTable: catalog: 58703, numindb: 21
Update: records affected: 1



GetName: 58703 TIANMU-1 18

Hit Count: updated at: Wed, 17 Apr 2024 02:39:41 GMT